"Pseudo-MPEC" for P11l8nN

Created 2021 Sep 16 11:07:24 UT using Find_Orb

Click here for an explanation of pseudo-MPECs

 
 Astrometry: 
     P11l8nN  C2021 09 12e[n4KPAstrometry=%LW'DdXC[)W:bIJ;g#58RW3=WI2ktcSB@ZfF51
     P11l8nN  C2021 09 12_8ctvt4^w^SeahW:Ek1WnwB:ev\`0#E#@?y;-]8E6Wa%5U$Zf5NdF51
     P11l8nN  C2021 09 138JXWFn=1K4l53-BpyB,W)eF^Dredacted;JY.hqX)Yojt=$fR7MOF51
     P11l8nN  C2021 09 13aMqm^3*^Wdb6r+b*+kcTk-)b1o;wDc$;1bclick;xFSU0oE\Taf:F51
     P11l8nN  C2021 09 13R*HxkQ:#GUYxSwn.dc`0p;t@:Vtv4.Z]`L4!O50b3d_iXG-v-qlHF51
     P11l8nN  C2021 09 13k2=G-?xuMXX4*G536EvJ/5mB]!jrdmdQ0e8O=3VvFjZGYn]%DahYF51
     P11l8nN KC2021 09 14UdpV\a(!.lR2jGO##%#H`J'..`,IO?$m64PQ=Q_c]WOMXY*5^.]xH21
     P11l8nN KC2021 09 142?,t%8D.2Hk,ybhere78KtI!G'Z+prm.qMWTRJRa\U=*I]b`O34xH21
     P11l8nN KC2021 09 14h5Y@Ou4]Fnd#H=M!X/0um0D*r^Y_r1(-j*'tY;1Ycv]29dgKtwFAH21
     P11l8nN  C2021 09 15aDL3\+rT=;a_v[rlGRUCiA6S.aM_-I+u3gZ`uw:j9yftLXA$4G/T654
     P11l8nN  C2021 09 15o(WVQXaLkN,+I^F9wyKK8G)eP6t+.C3edforCa6ijvN9Zt-1t3]y654
     P11l8nN  C2021 09 15%*],IgBwrPA+oAIm\96L6dfJ_s63`sf?W#KZkGX=Qy#!tnV@*]0n654
     P11l8nN  C2021 09 15I4-vJt6waUT[ic\G'h^iNd]^*AAnij)w@Sq0Q2f_Q!(:7)u%)3HWF51
     P11l8nN  C2021 09 15R_p\7+p(4GAr3L_Sfj.n^ExZK[GMmy3c69Ac\Ud_P]L#BYifg]J2F51
     P11l8nN  C2021 09 155^7q,ed+xMAk'/dKs#0O%,.Hru_Cau'yF3dsp7nareJ\6D_l.hK;F51
     P11l8nN  C2021 09 15vs3K303blf.Y^rRTc!o[f@explanationVWILFtgvHUH[?5C1UQkF51

Station data:
(654) Table Mountain Observatory, Wrightwood-PHMC  (N34.381822 W117.681590)
   US/California.
(F51) Pan-STARRS 1, Haleakala  (N20.707235 W156.255910)  US/Hawaii.
   Observers N. Primak, A. Schultz, S. Watters, J. Thiel, T. Goggia. Measurer
   PS1 Science Consortium. 1.8-m Ritchey-Chrétien + CCD.
(H21) Astronomical Research Observatory, Westfield  (N39.483057 W87.968270)
   US/Illinois. 0.76-m f/3.0 astrograph + CCD.

Orbital elements:  P11l8nN
   Perihelion 2021 Nov 14.050835 +/- 2.21715 TT =  1:13:12 (JD 2459532.550835)
Epoch 2021 Sep 15.0 TT = JDT 2459472.5   Earth MOID: 0.3787   Ma: 0.0372
M 347.18470746 +/- 0.3882039        (J2000 ecliptic)          AutoNEOCP
n   0.21340739 +/- 0.0122973        Peri.  192.61054 +/- 2.3965809
a   2.77329713 +/- 0.106448         Node   204.49071 +/- 0.4934721
e   0.5053860 +/- 0.0198681         Incl.    3.92940 +/- 0.1125614
P   4.62                   H 21.1   G  0.15   U  9.8  
q 1.37171153 +/- 0.0112189    Q 4.17488272 +/- 0.20387
From 16 observations 2021 Sept. 12-15; mean residual 0".08
Residuals in arcseconds: 
210912 F51  .07+  .07-    210914 H21  .09-  .04-    210915 F51  .01+  .02-    
210912 F51  .06+  .05-    210914 H21  .06+  .23-    210915 F51  .02+  .06-    
210913 F51  .05-  .08+    210914 H21  .06-  .06-    210915 F51  .00   .04+    
210913 F51  .08-  .10+    210915 654  .01+  .02+    210915 F51  .01-  .04+    
210913 F51  .03-  .15+    210915 654  .02-  .01-    
210913 F51  .01+  .16+    210915 654  .08+  .07+    

Ephemerides (geocentric):
Date (UTC) HH   RA              Dec         delta   r     elong  mag " sig PA
---- -- -- --  -------------   -----------  ------ ------ -----  --- ---- ---
2021 09 16 11  23 50 39.267   +05 14 29.27  .49659 1.4981 171.4 20.9 .073 133
2021 09 16 12  23 50 39.258   +05 14 16.36  .49641 1.4980 171.4 20.9 .074 129
2021 09 16 13  23 50 39.248   +05 14 03.43  .49622 1.4978 171.5 20.9 .075 124
2021 09 16 14  23 50 39.238   +05 13 50.46  .49604 1.4976 171.5 20.9 .076 120
2021 09 16 15  23 50 39.227   +05 13 37.46  .49585 1.4975 171.5 20.9 .078 116
2021 09 16 16  23 50 39.216   +05 13 24.44  .49567 1.4973 171.6 20.9 .080 112
2021 09 16 17  23 50 39.204   +05 13 11.39  .49548 1.4971 171.6 20.9 .083 108
2021 09 16 18  23 50 39.192   +05 12 58.30  .49530 1.4970 171.6 20.9 .086 104
2021 09 16 19  23 50 39.179   +05 12 45.19  .49511 1.4968 171.6 20.9 .090 101
2021 09 16 20  23 50 39.165   +05 12 32.05  .49493 1.4966 171.7 20.9 .094  98
2021 09 16 21  23 50 39.151   +05 12 18.89  .49475 1.4965 171.7 20.9 .098  95
2021 09 16 22  23 50 39.136   +05 12 05.69  .49456 1.4963 171.7 20.9 .103  93
2021 09 16 23  23 50 39.121   +05 11 52.46  .49438 1.4961 171.8 20.9 .108  90
2021 09 17 00  23 50 39.106   +05 11 39.21  .49420 1.4960 171.8 20.9 .113  88
2021 09 17 01  23 50 39.090   +05 11 25.92  .49402 1.4958 171.8 20.9 .118  86
2021 09 17 02  23 50 39.073   +05 11 12.61  .49384 1.4956 171.9 20.9 .124  84
2021 09 17 03  23 50 39.056   +05 10 59.27  .49365 1.4955 171.9 20.9 .129  83
2021 09 17 04  23 50 39.039   +05 10 45.90  .49347 1.4953 171.9 20.9 .135  81
2021 09 17 05  23 50 39.021   +05 10 32.50  .49329 1.4952 172.0 20.9 .142  80
2021 09 17 06  23 50 39.002   +05 10 19.08  .49311 1.4950 172.0 20.9 .148  79
2021 09 17 07  23 50 38.984   +05 10 05.62  .49293 1.4948 172.0 20.9 .154  77
2021 09 17 08  23 50 38.964   +05 09 52.14  .49275 1.4947 172.1 20.9 .161  76
2021 09 17 09  23 50 38.944   +05 09 38.63  .49257 1.4945 172.1 20.9 .167  75
2021 09 17 10  23 50 38.924   +05 09 25.09  .49239 1.4943 172.1 20.9 .174  75
2021 09 17 11  23 50 38.903   +05 09 11.52  .49221 1.4942 172.2 20.9 .181  74
2021 09 17 12  23 50 38.882   +05 08 57.92  .49203 1.4940 172.2 20.9 .188  73
2021 09 17 13  23 50 38.861   +05 08 44.30  .49185 1.4938 172.2 20.9 .195  72
2021 09 17 14  23 50 38.839   +05 08 30.65  .49168 1.4937 172.3 20.9 .202  72
2021 09 17 15  23 50 38.816   +05 08 16.97  .49150 1.4935 172.3 20.9 .210  71
2021 09 17 16  23 50 38.794   +05 08 03.26  .49132 1.4933 172.3 20.9 .217  71
2021 09 17 17  23 50 38.770   +05 07 49.52  .49114 1.4932 172.4 20.9 .224  70
2021 09 17 18  23 50 38.747   +05 07 35.75  .49096 1.4930 172.4 20.9 .232  70
2021 09 17 19  23 50 38.723   +05 07 21.96  .49079 1.4928 172.4 20.9 .239  69
2021 09 17 20  23 50 38.698   +05 07 08.14  .49061 1.4927 172.4 20.9 .247  69
2021 09 17 21  23 50 38.674   +05 06 54.29  .49043 1.4925 172.5 20.9 .255  69
2021 09 17 22  23 50 38.649   +05 06 40.41  .49026 1.4923 172.5 20.9 .262  68
2021 09 17 23  23 50 38.623   +05 06 26.51  .49008 1.4922 172.5 20.9 .270  68
2021 09 18 00  23 50 38.597   +05 06 12.57  .48991 1.4920 172.6 20.9 .278  68
2021 09 18 01  23 50 38.571   +05 05 58.61  .48973 1.4919 172.6 20.9 .286  67
2021 09 18 02  23 50 38.544   +05 05 44.62  .48956 1.4917 172.6 20.9 .294  67
2021 09 18 03  23 50 38.517   +05 05 30.60  .48938 1.4915 172.7 20.9 .302  67
2021 09 18 04  23 50 38.490   +05 05 16.56  .48921 1.4914 172.7 20.9 .310  67
2021 09 18 05  23 50 38.462   +05 05 02.49  .48903 1.4912 172.7 20.9 .318  67
2021 09 18 06  23 50 38.434   +05 04 48.39  .48886 1.4910 172.7 20.9 .326  67
2021 09 18 07  23 50 38.406   +05 04 34.26  .48868 1.4909 172.8 20.9 .334  66
2021 09 18 08  23 50 38.377   +05 04 20.11  .48851 1.4907 172.8 20.9 .342  66
2021 09 18 09  23 50 38.348   +05 04 05.92  .48834 1.4905 172.8 20.9 .350  66
2021 09 18 10  23 50 38.319   +05 03 51.71  .48816 1.4904 172.9 20.8 .358  66